TimeEDT,TemperatureF,Dew PointF,Humidity,Sea Level PressureIn,VisibilityMPH,Wind Direction,Wind SpeedMPH,Gust SpeedMPH,PrecipitationIn,Events,Conditions,WindDirDegrees,DateUTC
12:15 AM,64.4,64.4,100,-9999,10.0,North,5.8,-,N/A,,Partly Cloudy,10,2013-08-16 04:15:00
12:35 AM,64.4,62.6,94,-9999,10.0,NNE,5.8,-,N/A,,Partly Cloudy,20,2013-08-16 04:35:00
12:55 AM,64.4,62.6,94,-9999,10.0,NNE,8.1,-,N/A,,Partly Cloudy,20,2013-08-16 04:55:00
1:15 AM,64.4,62.6,94,-9999,-9999.0,NNE,5.8,-,N/A,,Unknown,20,2013-08-16 05:15:00
1:55 AM,62.6,62.6,100,-9999,10.0,NNE,6.9,-,N/A,,Unknown,30,2013-08-16 05:55:00
2:15 AM,62.6,62.6,100,-9999,10.0,Calm,Calm,-,N/A,,Unknown,0,2013-08-16 06:15:00
2:35 AM,62.6,62.6,100,-9999,10.0,NNE,8.1,-,N/A,,Partly Cloudy,20,2013-08-16 06:35:00
2:55 AM,60.8,60.8,100,-9999,10.0,North,6.9,-,N/A,,Scattered Clouds,10,2013-08-16 06:55:00
3:15 AM,60.8,60.8,100,-9999,10.0,North,3.5,-,N/A,,Scattered Clouds,360,2013-08-16 07:15:00
3:35 AM,60.8,60.8,100,-9999,10.0,NNE,8.1,-,N/A,,Scattered Clouds,20,2013-08-16 07:35:00
3:55 AM,60.8,60.8,100,-9999,10.0,NE,3.5,-,N/A,,Scattered Clouds,40,2013-08-16 07:55:00
4:15 AM,60.8,60.8,100,-9999,-9999.0,NE,5.8,-,N/A,,Unknown,50,2013-08-16 08:15:00
4:35 AM,59.0,59.0,100,-9999,-9999.0,NNE,6.9,-,N/A,,Unknown,20,2013-08-16 08:35:00
4:55 AM,60.8,60.8,100,-9999,-9999.0,NNE,5.8,-,N/A,,Unknown,30,2013-08-16 08:55:00
5:15 AM,59.0,59.0,100,-9999,-9999.0,North,5.8,-,N/A,,Unknown,10,2013-08-16 09:15:00
5:35 AM,59.0,59.0,100,-9999,-9999.0,NNE,6.9,-,N/A,,Unknown,20,2013-08-16 09:35:00
5:55 AM,60.8,60.8,100,-9999,-9999.0,NNE,10.4,-,N/A,,Unknown,20,2013-08-16 09:55:00
6:15 AM,62.6,62.6,100,-9999,-9999.0,NNE,9.2,-,N/A,,Unknown,30,2013-08-16 10:15:00
6:35 AM,62.6,60.8,94,-9999,-9999.0,NNE,5.8,-,N/A,,Unknown,30,2013-08-16 10:35:00
6:55 AM,62.6,62.6,100,-9999,-9999.0,North,11.5,-,N/A,,Unknown,10,2013-08-16 10:55:00
7:15 AM,62.6,62.6,100,-9999,-9999.0,NNE,10.4,-,N/A,,Unknown,30,2013-08-16 11:15:00
7:35 AM,62.6,62.6,100,-9999,-9999.0,NE,8.1,-,N/A,,Unknown,40,2013-08-16 11:35:00
7:55 AM,62.6,62.6,100,-9999,-9999.0,North,6.9,-,N/A,,Unknown,10,2013-08-16 11:55:00
8:15 AM,62.6,62.6,100,-9999,-9999.0,NE,9.2,-,0.02,,Unknown,50,2013-08-16 12:15:00
8:35 AM,62.6,62.6,100,-9999,-9999.0,North,9.2,-,0.03,,Unknown,10,2013-08-16 12:35:00
8:55 AM,62.6,62.6,100,-9999,-9999.0,North,9.2,-,0.04,,Unknown,10,2013-08-16 12:55:00
9:15 AM,62.6,62.6,100,-9999,-9999.0,NNE,4.6,-,N/A,,Unknown,30,2013-08-16 13:15:00
9:35 AM,62.6,62.6,100,-9999,-9999.0,NE,11.5,-,N/A,,Unknown,40,2013-08-16 13:35:00
9:55 AM,62.6,62.6,100,-9999,-9999.0,NE,8.1,-,N/A,,Unknown,40,2013-08-16 13:55:00
10:15 AM,62.6,62.6,100,-9999,-9999.0,NE,11.5,-,0.01,,Unknown,40,2013-08-16 14:15:00
10:35 AM,64.4,64.4,100,-9999,-9999.0,ENE,10.4,16.1,0.02,,Unknown,60,2013-08-16 14:35:00
10:55 AM,64.4,64.4,100,-9999,-9999.0,ENE,12.7,21.9,0.03,,Unknown,60,2013-08-16 14:55:00
11:15 AM,64.4,64.4,100,-9999,-9999.0,NE,10.4,-,N/A,,Unknown,50,2013-08-16 15:15:00
11:35 AM,64.4,64.4,100,-9999,-9999.0,ENE,5.8,-,0.01,,Unknown,60,2013-08-16 15:35:00
11:55 AM,64.4,64.4,100,-9999,-9999.0,NE,15.0,-,0.02,,Unknown,40,2013-08-16 15:55:00
12:15 PM,64.4,64.4,100,-9999,-9999.0,NE,10.4,-,0.01,Rain,Light Rain,40,2013-08-16 16:15:00
12:35 PM,64.4,64.4,100,-9999,6.0,NE,9.2,-,0.02,Rain,Light Rain,40,2013-08-16 16:35:00
12:55 PM,64.4,64.4,100,-9999,9.0,NE,8.1,18.4,0.02,Rain,Light Rain,50,2013-08-16 16:55:00
1:15 PM,66.2,66.2,100,-9999,10.0,NE,11.5,23.0,0.01,Rain,Light Rain,50,2013-08-16 17:15:00
1:35 PM,66.2,66.2,100,-9999,9.0,NNE,12.7,18.4,0.01,Rain,Light Rain,20,2013-08-16 17:35:00
1:55 PM,66.2,66.2,100,-9999,4.0,NNE,9.2,-,0.03,Rain,Light Rain,20,2013-08-16 17:55:00
2:15 PM,64.4,64.4,100,-9999,9.0,North,11.5,-,0.01,Rain,Light Rain,10,2013-08-16 18:15:00
2:35 PM,64.4,64.4,100,-9999,5.0,NNE,10.4,-,0.02,,Mist,20,2013-08-16 18:35:00
2:55 PM,64.4,64.4,100,-9999,3.0,North,8.1,-,0.06,,Mist,10,2013-08-16 18:55:00
3:15 PM,64.4,64.4,100,-9999,3.0,NNE,10.4,-,N/A,Rain,Rain,30,2013-08-16 19:15:00
3:35 PM,64.4,64.4,100,-9999,-9999.0,ENE,13.8,-,0.01,Rain,Light Rain,60,2013-08-16 19:35:00
3:55 PM,64.4,64.4,100,-9999,6.0,ENE,11.5,-,0.02,Rain,Light Rain,60,2013-08-16 19:55:00
4:15 PM,64.4,64.4,100,-9999,4.0,NE,13.8,-,0.02,Rain,Rain,40,2013-08-16 20:15:00
4:35 PM,64.4,64.4,100,-9999,5.0,North,13.8,-,0.03,Rain,Light Rain,360,2013-08-16 20:35:00
4:55 PM,62.6,62.6,100,-9999,-9999.0,North,13.8,-,0.04,Rain,Light Rain,360,2013-08-16 20:55:00
5:15 PM,62.6,62.6,100,-9999,-9999.0,North,16.1,23.0,0.01,,Unknown,10,2013-08-16 21:15:00
5:35 PM,62.6,62.6,100,-9999,-9999.0,NNE,21.9,26.5,0.03,,Unknown,30,2013-08-16 21:35:00
5:55 PM,62.6,62.6,100,-9999,-9999.0,NE,16.1,23.0,0.04,,Unknown,50,2013-08-16 21:55:00
6:15 PM,62.6,62.6,100,-9999,-9999.0,NE,11.5,-,N/A,,Unknown,50,2013-08-16 22:15:00
6:35 PM,64.4,64.4,100,-9999,10.0,NE,17.3,24.2,N/A,Rain,Light Rain,50,2013-08-16 22:35:00
6:55 PM,64.4,64.4,100,-9999,10.0,NE,15.0,-,N/A,,Unknown,40,2013-08-16 22:55:00
7:15 PM,64.4,64.4,100,-9999,10.0,ENE,15.0,-,N/A,,Scattered Clouds,60,2013-08-16 23:15:00
7:35 PM,64.4,64.4,100,-9999,10.0,NNE,6.9,-,N/A,Rain,Light Rain,20,2013-08-16 23:35:00
7:55 PM,64.4,64.4,100,-9999,10.0,ENE,4.6,-,0.01,,Unknown,60,2013-08-16 23:55:00
8:15 PM,64.4,64.4,100,-9999,10.0,ENE,6.9,-,N/A,,Unknown,60,2013-08-17 00:15:00
8:35 PM,64.4,64.4,100,-9999,-9999.0,NNE,6.9,-,0.01,Rain,Light Rain,30,2013-08-17 00:35:00
8:55 PM,64.4,64.4,100,-9999,-9999.0,NNE,8.1,-,0.01,Rain,Light Rain,30,2013-08-17 00:55:00
9:15 PM,62.6,62.6,100,-9999,-9999.0,ENE,6.9,-,0.01,Rain,Light Rain,60,2013-08-17 01:15:00
9:35 PM,62.6,62.6,100,-9999,-9999.0,ENE,11.5,-,0.01,Rain,Light Rain,60,2013-08-17 01:35:00
9:55 PM,62.6,62.6,100,-9999,6.0,ENE,3.5,-,0.01,Rain,Light Rain,60,2013-08-17 01:55:00
10:15 PM,62.6,62.6,100,-9999,10.0,Calm,Calm,-,N/A,,Unknown,0,2013-08-17 02:15:00
10:35 PM,64.4,64.4,100,-9999,10.0,NNE,5.8,-,N/A,,Unknown,30,2013-08-17 02:35:00
10:55 PM,64.4,64.4,100,-9999,10.0,NE,5.8,-,N/A,,Unknown,50,2013-08-17 02:55:00
11:15 PM,64.4,64.4,100,-9999,10.0,NNE,9.2,-,N/A,,Unknown,30,2013-08-17 03:15:00
11:35 PM,62.6,62.6,100,-9999,-9999.0,NNE,9.2,-,N/A,,Unknown,30,2013-08-17 03:35:00
11:55 PM,62.6,62.6,100,-9999,10.0,North,10.4,-,N/A,,Unknown,10,2013-08-17 03:55:00